EW6511 Weather Reports


Display with metric or nautical units.
time (UTC)temp
F
wind
direction
speed
MPH
gust
MPH
rain 1hr
in
rain 24hr
in
rain mn
in
humidity
%
barometer
mb
20260506192243 47 214 2.0 4.0 0.00 0.28 0.28 76 1012.2
20260506191243 48 234 3.0 5.0 0.00 0.28 0.28 75 1012.1
20260506190240 49 239 3.0 8.0 0.00 0.28 0.28 74 1012.1
20260506185240 49 207 3.0 7.0 0.00 0.28 0.28 74 1012.1
20260506182238 50 215 3.0 7.0 0.00 0.28 0.28 72 1011.9
20260506180236 51 241 7.0 13.0 0.00 0.28 0.28 70 1011.6
20260506175237 51 244 8.0 12.0 0.00 0.28 0.28 69 1011.6
20260506174236 51 242 8.0 16.0 0.00 0.28 0.28 69 1011.7
20260506173236 51 242 10.0 16.0 0.00 0.28 0.28 68 1011.5
20260506172236 52 259 9.0 14.0 0.00 0.28 0.28 69 1011.5
20260506170235 52 273 7.0 15.0 0.00 0.28 0.28 71 1011.3
20260506164237 52 272 5.0 12.0 0.00 0.28 0.28 71 1011.2
20260506162236 53 272 9.0 14.0 0.00 0.28 0.28 69 1011.2
20260506161235 53 272 10.0 16.0 0.00 0.28 0.28 68 1011.3
20260506160252 52 265 8.0 15.0 0.00 0.28 0.28 74 1011.3
20260506155235 51 268 10.0 15.0 0.00 0.28 0.28 73 1011.3
20260506154236 51 270 8.0 13.0 0.00 0.28 0.28 73 1011.2
20260506152236 52 284 9.0 15.0 0.00 0.28 0.28 73 1011.2
20260506151237 51 262 8.0 14.0 0.00 0.28 0.28 75 1011.2
20260506150237 50 263 9.0 16.0 0.00 0.28 0.28 75 1011.3
20260506145236 50 254 9.0 16.0 0.00 0.28 0.28 77 1011.5
20260506144237 49 233 9.0 18.0 0.00 0.28 0.28 76 1011.5
20260506143236 49 253 8.0 12.0 0.00 0.28 0.28 77 1011.5
20260506140235 49 210 7.0 13.0 0.00 0.28 0.28 80 1011.2
20260506135233 48 229 6.0 13.0 0.00 0.28 0.28 80 1011.3
20260506133232 48 254 9.0 18.0 0.00 0.28 0.28 79 1011.4
20260506132232 48 238 10.0 20.0 0.00 0.28 0.28 78 1011.3
20260506131232 49 290 10.0 18.0 0.00 0.28 0.28 78 1011.2
20260506130232 49 257 7.0 13.0 0.00 0.28 0.28 78 1011.2
20260506125231 49 257 8.0 12.0 0.00 0.28 0.28 79 1011.2
20260506124230 48 244 7.0 14.0 0.00 0.28 0.28 79 1011.2
20260506123230 48 228 5.0 9.0 0.00 0.28 0.28 79 1011.0
20260506122230 48 236 6.0 12.0 0.00 0.28 0.28 79 1010.9
20260506121230 48 236 8.0 15.0 0.00 0.28 0.28 79 1010.8
20260506120224 48 244 10.0 17.0 0.02 0.28 0.28 80 1010.8
20260506115224 48 225 8.0 16.0 0.02 0.28 0.28 81 1010.7
20260506114223 47 266 9.0 18.0 0.02 0.28 0.28 82 1010.6
20260506113224 47 273 9.0 18.0 0.03 0.28 0.28 83 1010.6
20260506112224 47 248 10.0 20.0 0.05 0.28 0.28 83 1010.6
20260506111220 47 265 9.0 19.0 0.07 0.28 0.28 83 1010.4
20260506110221 48 265 10.0 16.0 0.08 0.26 0.26 83 1010.3
20260506103222 48 196 6.0 11.0 0.21 0.24 0.24 83 1010.5
20260506102221 47 214 5.0 9.0 0.20 0.23 0.23 83 1010.3
20260506101219 48 214 6.0 11.0 0.17 0.20 0.20 83 1010.3
20260506100219 48 214 7.0 12.0 0.15 0.18 0.18 84 1010.2
20260506095220 48 214 8.0 15.0 0.13 0.17 0.17 84 1010.2
20260506092218 0 0.0 0.0 0.02 0.04 0.03 1009.7
20260506091214 0 0.0 0.0 0.02 0.04 0.03 1009.3
20260506085120 50 71 0.0 0.0 0.03 0.04 0.03 82 1009.0
20260506082114 50 69 0.0 2.0 0.01 0.02 0.01 81 1008.6
20260506081116 50 67 1.0 3.0 0.01 0.02 0.01 81 1008.5
20260506080118 50 92 0.0 3.0 0.00 0.01 0.00 81 1008.5
20260506073116 50 96 0.0 0.0 0.00 0.01 0.00 83 1008.3
20260506072115 49 96 0.0 0.0 0.00 0.01 0.00 83 1008.4
20260506070115 49 160 1.0 2.0 0.00 0.01 0.00 84 1008.5
20260506062114 47 183 0.0 2.0 0.00 0.03 0.00 84 1008.8
20260506061115 46 69 0.0 0.0 0.00 0.03 0.00 84 1008.8
20260506051111 44 68 1.0 3.0 0.00 0.06 0.00 84 1008.8
20260506050112 44 50 1.0 4.0 0.00 0.07 0.00 84 1008.7
20260506045111 44 50 0.0 1.0 0.00 0.07 0.00 83 1008.7
20260506044112 44 44 2.0 4.0 0.00 0.07 0.00 83 1008.7
20260506043106 44 90 1.0 2.0 0.00 0.07 0.00 83 1008.6
20260506042108 44 90 1.0 4.0 0.00 0.07 0.00 83 1008.6
20260506041107 44 82 0.0 0.0 0.00 0.07 0.00 83 1008.6
20260506040104 44 76 0.0 2.0 0.00 0.07 0.00 83 1008.7
20260506035105 45 76 0.0 1.0 0.00 0.07 0.00 83 1008.8
20260506034102 45 115 0.0 1.0 0.00 0.07 0.00 83 1008.9
20260506033103 45 114 1.0 2.0 0.00 0.07 0.00 83 1008.9
20260506032104 45 115 0.0 3.0 0.00 0.07 0.00 83 1009.0
20260506031102 46 115 0.0 0.0 0.00 0.07 0.00 83 1009.2
20260506030112 46 115 1.0 3.0 0.00 0.08 0.00 83 1009.3
20260506025104 47 114 2.0 3.0 0.00 0.08 0.00 83 1009.4
20260506024102 47 114 1.0 2.0 0.00 0.08 0.00 83 1009.6
20260506023103 47 114 0.0 0.0 0.00 0.08 0.00 83 1009.6
20260506022103 47 114 0.0 2.0 0.00 0.08 0.00 83 1009.8
20260506020056 47 114 1.0 2.0 0.00 0.08 0.00 82 1009.9
20260506015058 48 114 1.0 2.0 0.00 0.08 0.00 82 1009.8
20260506014058 48 114 1.0 2.0 0.00 0.08 0.00 83 1010.0
20260506013056 48 114 0.0 0.0 0.00 0.08 0.00 83 1010.1
20260506011058 48 114 2.0 4.0 0.00 0.08 0.00 82 1010.3
20260506005056 49 114 2.0 3.0 0.00 0.08 0.00 81 1010.6
20260506004052 49 114 2.0 3.0 0.00 0.08 0.00 82 1010.7
20260506003050 49 141 2.0 3.0 0.00 0.08 0.00 82 1010.9
20260506002050 49 141 1.0 3.0 0.00 0.08 0.00 81 1011.2
20260506001052 49 141 1.0 3.0 0.00 0.08 0.00 81 1011.4
20260506000056 49 141 2.0 4.0 0.00 0.08 0.00 81 1011.5
20260505235050 50 141 0.0 2.0 0.00 0.08 0.00 80 1011.6
20260505234051 50 141 0.0 2.0 0.00 0.08 0.00 79 1011.6
20260505233050 51 141 0.0 0.0 0.00 0.08 0.00 78 1011.7
20260505231045 50 141 0.0 1.0 0.00 0.08 0.00 79 1011.8
20260505225044 50 141 0.0 0.0 0.00 0.08 0.00 78 1011.9
20260505224044 50 141 0.0 2.0 0.00 0.08 0.00 78 1012.0
20260505223043 50 141 0.0 0.0 0.00 0.08 0.00 78 1012.0
20260505220044 51 141 0.0 2.0 0.00 0.08 0.00 77 1011.7
20260505215045 51 141 0.0 1.0 0.00 0.08 0.08 77 1011.8
20260505213038 51 141 0.0 2.0 0.00 0.08 0.08 79 1011.9
20260505212037 51 141 3.0 4.0 0.00 0.08 0.08 79 1011.8
20260505211036 51 137 4.0 7.0 0.00 0.08 0.08 79 1012.0
20260505210036 50 138 4.0 7.0 0.00 0.08 0.08 79 1012.1
20260505205035 51 148 4.0 7.0 0.00 0.08 0.08 79 1012.2
20260505204033 50 156 0.0 2.0 0.00 0.08 0.08 79 1012.3
20260505203035 50 155 2.0 3.0 0.00 0.08 0.08 80 1012.1
20260505202035 50 155 1.0 2.0 0.00 0.08 0.08 80 1012.1
20260505201033 50 156 3.0 6.0 0.00 0.08 0.08 78 1011.9
20260505200033 51 155 1.0 5.0 0.00 0.08 0.08 77 1011.8
20260505195039 51 156 2.0 6.0 0.00 0.08 0.08 77 1011.9